Weather in Brooklyn Borough

United States     40°38′58″N   73°57′24″W
В апреле 2022 года жителям России запретили посещать сайт meteo.paraplan.net по решению Генеральной прокуратуры. Аудитория сайта уменьшилась в 10 раз. Владельцы сайта не видят смысла в поддержке погодного сервера в таких условиях. Сайт будет закрыт в октябре.
temp.,
°C
wind,
m/s
gust,
m/s
humid.,
%
clouds,
%
prec.,
mm/h
press.,
hPa
HPBL,
m
4 october, tue
tue423:00+10nne71377100 2.3 1021811
02:00+9nne71377100 3.7 1020776
05:00+9nne71587100 8.8 1017812
08:00+10nne71487100 17.5 1017924
11:00+10nne71488100 0.8 1017878
14:00+12nne71490100 1.7 1014875
17:00+13nne71489100 1.4 1014872
20:00+13nne71391100 2.1 1014841
5 october, wed
wed523:00+13nne71391100 1.1 1014737
02:00+14nne61393100 2.5 1013768
05:00+14nne61393100 4.8 1012826
08:00+13nne61393100 11.4 1013734
11:00+14nne61291100 2.9 1014811
14:00+14nne61188100 3.8 1014744
17:00+14nne41188100 0.2 1014642
20:00+14n3789100 0.3 1015464
6 october, thu
thu623:00+14nnw248877 0.0 1015186
02:00+14nnw248377 0.0 1015174
05:00+13n24780 0.0 1015108
08:00+13nnw13755 0.0 101699
11:00+18wnw124941 0.0 1016392
14:00+22sw2233100 0.0 1015869
17:00+21ssw3441100 0.0 1014505
20:00+18s3465100 0.0 1015167
7 october, fri
fri723:00+17sw2664100 0.0 1014189
02:00+16sw377020 0.0 1014246
05:00+15wsw37765 0.0 1013233
08:00+15wsw367317 0.0 1014193
11:00+21wsw46485 0.0 1013570
14:00+24sw69379 0.0 10111547
17:00+21wnw895047 0.0 10121326
20:00+13nw7115796 0.0 1016777
8 october, sat
sat823:00+10nw710531 0.0 1018949
02:00+9nw610505 0.0 10201107
05:00+8nw510520 0.0 10211097
08:00+8wnw510502 0.0 10221012
11:00+11nw57435 0.0 10221417
14:00+14wnw57303 0.0 10201782
17:00+15wnw57314 0.0 10191813
20:00+13wsw25400 0.0 1021521